This demonstration page uses our WeatherBlox Daily Observations layout. Learn more.

Left ArrowRight Arrow

34.74481, -87.66753

Hourly Observations for December 20, 2018

Temp ( °F °C ) Dew Point ( °F °C ) Humidity (%) Winds ( mph kmh ) Pressure ( in mb ) Visibility ( mi km ) Precip ( " mm )
12:53 am 00:53 Cloudy with Light Rain 50 10 44 6.7 80 80 SE 15 24 29.75 1008 10 16 0.02 0.51
1:53 am 01:53 Cloudy with Light Rain 50 10 45 7.2 83 83 SE 14 22 29.73 1007 8 13 0.03 0.76
2:53 am 02:53 Cloudy 49 9.4 46 7.8 90 90 ESE 9 15 29.72 1006 10 16 0.02 0.51
3:18 am 03:18 Cloudy 49 9.4 46 7.8 90 90 E 7 11 29.77 1008 10 16 0.00 0.00
3:48 am 03:48 Cloudy with Light Rain 48 9 46 8 94 94 ESE 8 13 29.74 1007 3 5 0.00 0.03
3:53 am 03:53 Cloudy with Light Rain 49 9.4 47 8.3 93 93 ESE 9 15 29.71 1006 3 5 0.00 0.03
4:25 am 04:25 Cloudy with Mist and Fog 49 9.4 47 8.3 93 93 E 8 13 29.74 1007 4 6 0.00 0.03
4:51 am 04:51 Cloudy with Mist and Fog 48 9 46 8 94 94 E 6 9 29.71 1006 6 10 0.00 0.03
4:53 am 04:53 Cloudy with Mist and Fog 49 9.4 47 8.3 93 93 E 6 9 29.68 1005 6 10 0.00 0.03
5:08 am 05:08 Cloudy with Mist and Fog 49 9.4 47 8.3 93 93 E 7 11 29.71 1006 6 10 0.00 0.00
5:48 am 05:48 Cloudy with Light Rain 48 9 46 8 94 94 E 8 13 29.71 1006 6 10 0.00 0.03
5:53 am 05:53 Cloudy with Light Rain 49 9.4 47 8.3 93 93 E 6 9 29.67 1005 5 8 0.00 0.03
6:41 am 06:41 Cloudy with Heavy Rain 50 10 48 8.9 93 93 NW 5 7 29.71 1006 2 3 0.08 2.03
6:53 am 06:53 Cloudy with Heavy Rain 50 10 48 8.9 93 93 NW 3 6 29.66 1004 2 3 0.14 3.56
7:30 am 07:30 Cloudy with Light Rain 50 10 48 8.9 93 93 Calm 29.68 1005 2 3 0.05 1.27
7:53 am 07:53 Cloudy with Rain 50 10 48 8.9 93 93 Calm 29.66 1004 2 3 0.07 1.78
8:11 am 08:11 Cloudy with Mist and Fog 50 10 48 8.9 93 93 Calm 29.71 1006 2 3 0.00 0.03
8:21 am 08:21 Cloudy with Light Rain 50 10 48 8.9 93 93 NE 3 6 29.68 1005 2 2 0.01 0.25
8:36 am 08:36 Cloudy with Light Rain 50 10 48 8.9 93 93 ENE 5 7 29.68 1005 2 3 0.01 0.25
8:53 am 08:53 Cloudy with Mist and Fog 50 10 48 8.9 93 93 E 6 9 29.65 1004 2 3 0.01 0.25
8:57 am 08:57 Cloudy with Mist and Fog 50 10 48 8.9 93 93 E 5 7 29.68 1005 2 3 0.00 0.00
9:12 am 09:12 Cloudy with Mist and Fog 50 10 49 9.4 96 96 ENE 6 9 29.68 1005 2 3 0.00 0.00
9:19 am 09:19 Cloudy with Mist and Fog 50 10 49 9.4 96 96 ENE 6 9 29.68 1005 2 3 0.00 0.00
9:53 am 09:53 Cloudy with Mist and Fog 50 10 49 9.4 96 96 E 6 9 29.63 1003 3 4 0.00 0.00
10:06 am 10:06 Cloudy with Mist and Fog 50 10 49 9.4 96 96 E 3 6 29.65 1004 3 5 0.00 0.00
10:27 am 10:27 Cloudy with Mist and Fog 50 10 49 9.4 96 96 E 3 6 29.65 1004 3 4 0.00 0.00
10:43 am 10:43 Cloudy with Light Rain 50 10 48 8.9 93 93 E 3 6 29.65 1004 2 3 0.01 0.25
10:50 am 10:50 Cloudy with Rain 50 10 48 9 94 94 E 5 7 29.65 1004 2 3 0.02 0.51
10:53 am 10:53 Cloudy with Light Rain 50 10 48 8.9 93 93 E 5 7 29.60 1002 3 4 0.02 0.51
11:02 am 11:02 Cloudy with Light Rain 50 10 48 8.9 93 93 E 3 6 29.62 1003 3 5 0.00 0.03
11:13 am 11:13 Cloudy with Rain 50 10 49 9.4 96 96 E 5 7 29.62 1003 2 3 0.02 0.51
11:35 am 11:35 Cloudy with Light Rain 50 10 49 9.4 96 96 ENE 3 6 29.62 1003 3 4 0.03 0.76
11:43 am 11:43 Cloudy with Light Rain 50 10 49 9.4 96 96 ENE 3 6 29.59 1002 3 4 0.04 1.02
11:53 am 11:53 Cloudy with Light Rain 51 10.6 49 9.4 92 92 ENE 3 6 29.56 1001 3 4 0.04 1.02
12:09 pm 12:09 Cloudy with Light Rain 51 10.6 49 9.4 92 92 ENE 3 6 29.59 1002 4 6 0.00 0.03
12:21 pm 12:21 Cloudy with Mist and Fog 51 10.6 49 9.4 92 92 Calm 29.59 1002 4 6 0.00 0.03
12:31 pm 12:31 Cloudy with Rain 51 10.6 49 9.4 92 92 Calm 29.56 1001 2 3 0.02 0.51
12:50 pm 12:50 Cloudy with Light Rain 52 11 48 9 88 88 Calm 29.56 1001 3 4 0.04 1.02
12:53 pm 12:53 Cloudy with Light Rain 51 10.6 49 9.4 92 92 NNE 3 6 29.52 1000 3 4 0.05 1.27
1:03 pm 13:03 Cloudy with Light Rain 51 10.6 49 9.4 92 92 Calm 29.56 1001 3 5 0.00 0.03
1:53 pm 13:53 Cloudy 51 10.6 49 9.4 92 92 Calm 29.50 999 8 13 0.02 0.51
2:23 pm 14:23 Cloudy with Light Rain 51 10.6 49 9.4 92 92 NNW 3 6 29.53 1000 2 3 0.00 0.03
2:42 pm 14:42 Cloudy with Light Rain 51 10.6 49 9.4 92 92 NW 3 6 29.53 1000 2 3 0.01 0.25
2:53 pm 14:53 Cloudy with Light Rain 51 10.6 49 9.4 92 92 NW 3 6 29.50 999 2 3 0.01 0.25
3:00 pm 15:00 Cloudy with Light Rain 51 10.6 49 9.4 92 92 Calm 29.53 1000 2 3 0.01 0.25
3:08 pm 15:08 Cloudy with Light Rain 51 10.6 49 9.4 92 92 N 3 6 29.53 1000 2 3 0.02 0.51
3:17 pm 15:17 Cloudy with Light Rain 51 10.6 49 9.4 92 92 NNW 5 7 29.53 1000 3 4 0.02 0.51
3:32 pm 15:32 Cloudy with Light Rain 51 10.6 49 9.4 92 92 NW 5 7 29.53 1000 4 6 0.03 0.76
3:53 pm 15:53 Cloudy 51 10.6 49 9.4 92 92 NNW 3 6 29.49 999 9 14 0.03 0.76
4:53 pm 16:53 Cloudy 50 10 48 8.9 93 93 NW 8 13 29.50 999 10 16 0.00 0.00
5:53 pm 17:53 Cloudy 50 10 48 8.9 93 93 NW 9 15 29.50 999 10 16 0.00 0.00
6:26 pm 18:26 Cloudy 50 10 48 8.9 93 93 NW 5 7 29.53 1000 10 16 0.00 0.00
6:53 pm 18:53 Cloudy 50 10 47 8.3 89 89 NW 6 9 29.50 999 10 16 0.00 0.00
7:53 pm 19:53 Cloudy 50 10 47 8.3 89 89 NNW 6 9 29.49 999 7 11 0.00 0.03
8:27 pm 20:27 Cloudy with Mist and Fog 49 9.4 47 8.3 93 93 NW 7 11 29.53 1000 5 8 0.00 0.00
8:53 pm 20:53 Cloudy 49 9.4 47 8.3 93 93 NW 6 9 29.49 999 8 13 0.00 0.00
9:39 pm 21:39 Cloudy with Mist and Fog 49 9.4 47 8.3 93 93 NW 7 11 29.53 1000 4 6 0.00 0.00
9:53 pm 21:53 Cloudy with Mist and Fog 49 9.4 47 8.3 93 93 NW 7 11 29.48 998 3 5 0.00 0.00
10:53 pm 22:53 Cloudy with Mist and Fog 48 8.9 46 7.8 93 93 NW 8 13 29.47 998 4 6 0.00 0.00
11:53 pm 23:53 Cloudy 48 8.9 45 7.2 89 89 NW 9 15 29.46 998 7 11 0.00 0.03

Powered by AerisWeather